Location: Austin
(30.3000°N, 97.7500°W)
Time: 23:33:36
(UTC-05:00)

Cosmos 923 Rocket - Pass Details

Date: 19 September 2023
Orbit: 756 x 782 km, 74.0° (Epoch: 12 September)

Event Time Altitude Azimuth Distance (km) Brightness Sun altitude
Rises 05:50:52 0° 348° (NNW) 3,241 7.3 -19.3°
Reaches altitude 10° 05:53:16 10° 352° (N) 2,317 6.5 -18.8°
Maximum altitude 05:58:28 61° 73° (ENE) 879 4.6 -17.7°
Drops below altitude 10° 06:03:36 11° 153° (SSE) 2,289 6.6 -16.7°
Sets 06:06:07 0° 157° (SSE) 3,255 7.4 -16.1°
